User: anonymous   Login
Location: Bermeries
(50.2863°N, 3.7551°E)
Time: 12:34:20
(UTC+00:00)
Language:

Cosmos 841 Rocket - Orbit

View from above orbital plane
View from above orbital plane
View from above satellite
View from above satellite

Ground track
Ground track

The orbit data is extracted from the following two-line orbital elements,

1 09023U 76069B   24200.87921676  .00000816  00000-0  26445-3 0  9995
2 09023  74.0440 357.4810 0018081 244.4071 115.5216 14.40447107517098
Epoch (UTC): 18 July 2024 21:06:04
Eccentricity: 0.0018081
inclination: 74.0440°
perigee height: 744 km
apogee height: 770 km
right ascension of ascending node: 357.4810°
argument of perigee: 244.4071°
revolutions per day: 14.40447107
mean anomaly at epoch: 115.5216°
orbit number at epoch: 51709

The dashed part of the orbit path shows where the satellite is in the earth's shadow,  

DLR